Theta_e
311 309 309 308 309 310 310 310 309 309 308 307 307 307 307 308 308 309 311 314 315 318 315 316 318 319 318 318 317 320 325 326 328 332 329 326 325 324 327 328 334 330 329 334 332 335 339 333 332 336 335 334 346 343
311 310 309 309 309 309 310 310 310 309 309 309 308 309 309 310 310 309 310 309 314 316 313 312 313 314 316 317 319 319 321 322 330 327 328 329 332 328 327 331 323 329 328 333 331 332 330 332 331 334 340 343 346 346
310 310 309 310 310 310 310 310 310 310 310 310 309 309 309 309 309 310 310 309 317 319 317 319 321 321 322 321 319 319 316 320 320 323 326 326 329 323 326 325 326 325 328 328 330 329 330 332 331 332 335 343 344 344
309 310 310 310 310 310 310 310 310 311 311 310 309 309 309 309 309 310 310 314 319 319 318 319 320 320 321 322 322 320 319 321 322 322 324 322 324 324 323 322 323 326 325 327 326 329 332 331 331 335 336 340 341 341
308 309 310 311 311 311 311 310 309 310 309 309 309 308 308 309 310 310 318 320 318 316 315 312 313 318 319 320 320 319 319 321 321 321 318 318 321 320 319 318 323 324 323 322 323 325 331 332 335 340 340 341 341 341
307 308 309 310 311 311 310 309 310 309 309 309 308 308 308 309 310 310 322 321 320 319 310 313 315 320 319 321 320 320 322 322 322 323 320 322 322 321 318 320 322 325 324 324 331 332 331 335 335 337 337 338 337 336
308 308 308 309 311 310 309 309 309 308 308 309 308 310 311 310 310 310 319 317 313 312 314 319 318 320 322 322 322 323 322 322 322 322 322 322 323 322 317 320 322 325 324 325 331 333 333 332 329 331 331 328 328 324
306 307 308 308 310 310 309 309 309 308 308 309 310 313 316 313 318 320 320 320 317 313 318 316 316 320 321 321 321 324 324 324 323 322 322 320 322 321 320 320 324 324 324 324 323 328 332 331 328 328 328 326 323 322
305 307 307 308 309 310 309 309 309 308 308 309 315 317 319 320 321 320 316 313 315 315 319 321 319 316 321 321 323 322 324 321 324 320 320 321 318 320 321 324 323 325 325 324 325 326 327 331 327 325 324 323 322 322
304 305 306 307 308 309 309 309 309 308 308 309 316 319 322 321 319 315 317 320 321 321 319 318 318 319 322 321 320 320 322 320 320 320 322 321 319 326 325 323 322 323 324 324 325 327 327 325 324 323 322 322 323 322
305 304 304 305 306 308 309 309 309 308 308 308 309 316 317 314 316 320 321 322 322 321 322 321 322 319 323 319 316 322 318 317 320 319 322 321 321 324 323 322 322 322 324 324 324 326 325 324 323 323 322 322 322 322
309 304 304 305 306 307 308 309 308 308 308 307 311 312 318 320 321 320 319 321 321 320 322 322 323 322 323 322 320 321 319 318 322 321 322 324 321 324 324 326 323 322 323 325 325 326 325 324 323 323 323 322 322 322
312 305 304 305 305 305 308 309 308 308 308 314 316 318 320 320 314 320 322 320 319 321 321 321 321 324 324 322 320 318 319 318 320 320 322 323 322 322 326 326 325 324 324 325 325 325 324 324 323 323 322 322 321 320
314 307 304 305 305 305 306 308 308 308 308 315 317 310 316 318 318 318 318 318 320 322 322 321 322 323 323 321 320 322 319 320 322 323 325 321 324 324 325 325 325 323 321 320 320 321 322 322 322 321 320 319 321 322
314 310 304 305 307 307 307 307 307 307 308 315 317 311 316 318 319 321 321 321 321 320 321 322 323 323 320 321 319 320 323 324 324 324 321 321 320 322 323 324 322 322 322 321 321 320 320 320 319 321 321 320 321 320
313 312 306 307 307 306 306 307 309 309 313 316 316 316 318 319 320 320 321 321 320 321 321 323 321 321 321 320 322 323 324 325 322 321 321 318 319 320 321 323 322 318 321 321 322 321 321 320 318 319 321 320 320 319
312 312 309 307 308 306 307 308 312 312 313 314 314 314 315 315 316 318 320 320 320 320 318 320 321 322 320 321 322 321 321 318 321 321 319 317 317 317 320 322 321 321 321 321 320 319 320 320 319 320 320 319 319 318
311 311 309 308 306 306 310 311 311 313 314 314 315 315 315 316 318 320 320 320 320 319 320 320 319 319 319 322 320 318 321 321 321 321 320 318 318 318 318 318 320 320 320 319 318 318 317 317 316 316 317 319 318 316
311 310 308 307 306 306 311 314 312 313 314 315 315 316 317 318 318 320 319 320 320 320 320 320 318 318 318 321 320 320 321 321 321 320 318 317 316 317 318 318 318 319 318 318 319 319 317 316 316 318 318 318 317 317
310 309 307 307 305 306 311 313 313 314 315 316 316 316 318 319 318 319 319 319 319 318 321 319 317 319 321 321 322 322 321 319 319 319 317 317 317 317 317 317 317 317 317 317 317 317 317 317 318 318 317 317 317 316
309 307 306 305 306 306 308 312 314 315 315 316 316 317 318 318 318 318 318 318 320 321 319 319 319 319 322 320 320 320 318 319 318 318 317 317 317 318 317 318 318 318 317 318 317 318 318 316 317 317 317 316 316 315
307 307 306 306 308 310 310 309 311 312 312 314 315 315 316 318 319 319 319 321 321 321 321 321 321 322 321 320 317 317 318 318 319 317 317 317 317 316 318 318 317 318 318 317 317 317 317 316 316 317 316 316 317 316
308 307 308 310 310 311 310 310 311 313 314 316 317 318 318 318 318 319 323 323 321 321 321 322 322 322 321 316 314 315 319 318 318 318 316 317 317 316 316 317 318 317 317 317 317 317 316 316 317 316 316 316 316 315
307 307 309 310 310 309 310 312 313 313 314 315 315 318 319 321 322 324 321 323 323 324 323 322 321 323 320 316 318 317 318 319 319 316 317 317 317 317 317 317 318 317 317 317 317 317 317 317 316 316 316 315 315 316
307 307 309 309 310 312 312 312 313 313 315 315 317 317 319 322 320 321 323 324 324 325 323 321 322 319 315 317 317 319 320 319 318 317 318 318 319 318 317 316 316 317 317 317 317 317 316 316 316 316 316 316 316 316
307 309 308 310 310 311 312 314 315 315 315 316 317 318 322 321 323 322 322 323 323 323 322 322 320 320 320 318 319 319 318 318 318 318 317 318 319 319 317 317 317 317 317 317 316 316 316 316 316 316 315 315 315 314
309 310 309 310 311 313 313 313 313 314 316 319 318 320 319 321 323 322 323 325 323 322 323 323 321 320 320 320 320 319 319 319 318 317 317 317 318 318 318 318 317 316 315 316 316 316 316 316 316 315 315 315 315 315
309 310 310 312 311 312 312 313 312 314 314 316 318 321 322 323 322 320 321 322 323 323 323 322 320 318 318 318 319 319 319 318 318 318 318 318 318 318 318 318 316 314 314 315 316 316 315 315 315 314 314 315 315 315
309 310 311 311 313 313 313 313 313 313 315 314 315 320 321 320 319 320 320 322 322 323 323 320 318 316 317 317 318 318 318 318 318 318 318 318 319 319 319 319 319 318 311 314 315 315 314 313 313 313 313 314 315 316
309 309 310 312 311 312 312 312 312 312 313 313 314 315 315 316 317 318 319 321 321 322 322 322 320 318 317 316 316 317 318 319 319 319 318 319 318 319 319 319 319 318 316 313 314 314 313 312 312 312 313 315 315 315
310 310 310 311 311 312 312 312 312 312 313 313 314 315 316 317 317 316 317 319 320 320 321 322 322 322 322 322 321 321 320 320 319 319 320 319 319 318 318 319 318 317 317 316 315 314 315 314 314 314 314 314 315 315
310 310 311 311 311 311 311 312 312 313 314 315 315 315 316 316 316 316 316 316 317 318 319 320 320 320 321 321 321 320 321 321 321 321 320 319 318 317 317 317 317 318 318 317 317 316 316 316 315 316 316 316 315 316
310 309 310 311 312 312 313 314 315 316 316 315 315 315 315 316 317 317 317 317 317 318 318 319 319 319 319 320 320 319 320 321 322 322 319 318 318 318 317 317 317 317 318 318 317 317 317 317 316 316 316 316 316 317
Wind_Speed
12 12 13 14 14 15 16 17 18 18 19 19 19 19 19 19 18 14 4 7 10 6 26 11 6 6 14 5 1 10 6 9 6 6 3 3 2 4 1 2 5 2 1 1 2 3 4 6 4 6 6 3 2 13
12 11 12 13 14 15 16 17 17 18 19 19 19 19 19 20 19 16 13 8 10 15 23 29 30 28 26 20 14 4 2 5 2 3 2 2 3 4 2 2 6 3 4 4 5 5 8 3 14 13 12 16 12 16
11 11 12 13 13 15 17 18 18 19 20 21 21 20 19 19 19 17 15 13 13 8 19 8 3 10 1 5 5 6 7 4 9 9 4 2 1 2 1 3 3 5 3 3 2 5 9 6 8 6 8 22 19 17
12 12 13 14 15 15 17 19 19 19 21 22 21 20 20 18 15 14 13 5 8 6 5 7 9 1 4 7 8 9 11 8 7 10 2 1 1 2 3 3 2 5 4 1 4 4 1 9 9 12 15 17 18 18
12 14 14 15 16 17 19 19 19 19 20 19 20 21 19 16 11 9 2 2 6 5 4 15 20 2 4 4 7 5 7 6 6 3 2 2 4 2 3 2 2 1 3 2 5 7 7 10 18 27 27 26 28 31
15 15 15 17 17 17 18 18 17 18 18 18 19 18 17 14 8 2 3 2 4 7 6 4 11 9 6 3 4 10 11 8 10 3 4 4 5 4 1 2 5 1 4 5 4 3 12 24 30 26 30 32 31 34
15 17 18 18 16 15 16 16 18 18 17 18 17 14 12 10 5 1 1 2 5 7 3 7 9 8 8 6 10 14 13 11 12 10 3 2 4 6 3 2 9 3 6 10 4 9 19 28 29 32 36 34 33 33
15 16 17 17 15 16 16 18 19 19 18 16 12 7 6 4 4 3 2 6 10 5 3 1 5 7 24 10 7 10 7 6 5 8 8 3 7 0 2 8 15 11 6 2 3 4 12 20 31 30 30 31 31 29
16 15 16 17 16 15 16 18 19 20 18 13 6 4 2 1 3 5 13 13 8 4 3 2 2 3 15 11 8 10 6 3 9 3 3 1 1 1 3 7 23 16 10 9 4 7 7 25 33 34 32 27 27 24
16 15 16 16 15 14 15 16 18 19 17 8 3 1 1 1 7 9 1 1 1 2 3 4 4 3 6 7 4 5 4 1 3 3 12 2 2 1 10 14 19 22 8 9 9 9 20 28 29 26 23 19 18 17
16 16 16 15 15 14 13 14 15 17 14 7 4 2 5 7 2 1 2 3 3 2 4 4 4 3 10 1 3 2 1 1 3 4 2 4 3 4 15 12 12 17 16 9 6 10 21 29 27 23 22 22 20 18
16 16 16 15 13 12 11 11 13 13 13 13 9 8 4 1 2 0 2 2 2 3 2 2 5 8 6 4 0 1 1 2 4 1 2 3 3 15 13 13 9 4 5 5 11 23 27 25 22 22 26 22 15 13
15 15 15 14 13 11 9 9 10 13 13 4 2 3 2 2 2 4 3 1 1 2 4 3 5 3 4 3 2 2 2 4 1 1 1 2 17 19 15 7 4 7 11 14 17 16 15 19 19 19 17 6 13 9
14 14 14 13 12 11 8 7 8 9 5 2 2 4 4 3 4 4 4 4 5 5 6 7 3 1 2 3 1 1 3 3 2 4 0 3 11 12 11 8 4 9 10 13 16 15 16 15 13 10 12 17 15 14
13 13 12 9 8 6 6 6 7 7 3 3 4 3 5 10 10 6 7 5 4 7 8 5 1 1 2 2 1 2 2 2 2 2 3 8 10 8 4 8 11 8 11 14 17 18 19 18 16 15 15 14 14 13
13 11 8 9 7 9 8 6 5 2 3 3 5 4 8 6 4 2 7 5 2 3 6 1 1 2 2 2 1 2 2 1 3 4 14 13 12 6 4 3 6 8 6 11 14 14 13 11 9 13 15 15 13 11
13 11 9 9 8 8 7 3 2 3 4 4 7 10 16 18 15 14 9 9 5 2 1 2 1 2 1 1 1 1 3 4 11 12 13 11 13 13 4 1 5 7 8 9 7 6 4 4 8 7 8 13 10 6
14 13 9 7 6 6 4 3 3 5 6 10 8 12 10 12 15 15 6 13 8 3 2 3 2 1 2 1 2 3 5 8 6 8 10 8 7 7 8 8 8 5 6 6 2 4 3 3 3 1 10 12 9 6
13 12 8 5 6 4 2 3 5 5 9 12 15 18 17 18 17 11 6 5 9 7 3 2 2 3 3 5 7 5 3 6 7 7 5 5 4 4 5 6 6 3 4 5 6 4 2 2 4 5 6 6 7 5
13 12 8 8 5 2 3 5 5 6 5 5 11 13 13 15 16 14 11 9 13 10 5 3 5 8 8 7 6 5 3 2 2 6 2 1 1 1 2 3 5 4 5 5 6 7 5 6 5 4 6 5 4 4
11 10 8 8 6 7 5 4 5 6 8 7 12 14 11 13 14 16 14 9 9 5 5 9 15 13 8 4 3 2 2 4 2 3 1 1 3 3 2 3 4 5 5 5 7 6 5 5 5 7 5 4 3 2
8 9 7 8 6 4 7 8 7 10 7 10 16 12 7 5 9 14 13 8 7 13 13 13 14 14 13 9 5 8 8 6 2 2 4 2 2 5 5 4 2 4 4 4 5 5 6 2 3 6 5 6 8 9
11 10 5 6 5 5 7 5 5 4 3 4 5 3 4 4 5 7 3 7 10 16 16 14 14 14 9 6 8 12 8 7 2 6 7 3 2 2 5 5 4 5 8 5 6 7 11 6 4 5 5 6 7 5
10 8 4 4 8 4 4 4 5 3 5 4 3 5 4 5 2 4 3 5 8 10 15 14 11 14 10 12 10 10 8 7 5 5 2 6 6 7 6 6 8 7 5 5 8 8 9 7 6 7 6 6 9 8
4 5 4 6 6 4 3 3 5 3 4 3 2 4 4 2 1 2 3 6 17 18 18 12 13 11 13 15 13 12 11 11 8 8 6 4 6 8 8 10 9 9 11 9 10 10 4 7 7 7 8 8 8 10
4 8 8 9 5 5 4 3 4 4 4 3 4 6 0 1 2 5 3 10 18 16 18 19 18 22 22 19 12 14 11 7 10 9 8 11 9 9 10 13 13 7 13 14 11 9 9 7 8 11 10 10 9 7
4 5 9 10 5 4 4 6 9 5 3 3 3 1 2 1 3 4 7 9 3 12 16 19 16 21 22 17 19 19 11 10 6 6 3 4 8 5 8 12 13 7 8 10 12 11 11 13 8 9 13 9 5 7
6 5 5 12 6 8 3 3 3 3 4 5 4 2 2 1 1 2 9 3 2 5 8 18 18 12 12 11 12 13 14 10 8 7 9 9 8 8 9 3 7 9 7 5 8 17 13 11 12 5 5 4 2 5
6 7 7 7 9 7 8 6 5 6 4 11 5 3 2 5 3 9 12 18 12 8 13 13 11 8 13 9 16 13 14 15 17 20 20 15 11 11 8 9 5 4 3 8 8 10 8 6 8 11 10 6 4 4
6 10 5 7 6 5 8 11 11 16 18 19 17 23 29 25 22 21 16 12 9 5 6 6 6 11 11 10 12 17 18 17 21 26 24 18 12 7 11 9 7 8 7 9 8 8 6 6 8 10 11 8 5 6
6 8 9 11 12 17 20 21 23 23 23 24 24 26 29 25 21 17 13 13 16 16 14 11 11 13 13 16 20 18 16 14 19 13 11 13 15 10 9 10 8 12 14 12 13 12 8 7 7 8 11 12 14 16
8 8 4 2 12 20 20 24 23 22 23 23 25 24 22 21 22 21 18 16 15 15 15 14 13 13 10 17 14 13 11 16 14 12 14 12 17 12 8 7 12 14 15 17 18 16 16 14 9 9 9 4 7 13
10 10 11 10 7 6 10 11 6 7 19 23 24 27 26 23 15 19 12 9 15 20 20 19 17 15 15 16 18 23 21 19 16 16 10 14 14 14 14 12 10 12 16 18 14 14 3 8 18 15 14 13 9 12
Wind_Direction
324 328 330 331 331 336 341 345 348 348 348 348 347 347 347 348 351 1 3 323 333 276 295 286 237 284 320 321 31 322 0 358 7 39 51 276 167 252 227 260 304 158 74 169 111 90 259 308 339 105 223 53 132 124
320 324 330 332 331 330 332 336 339 342 343 342 342 343 343 341 341 342 343 326 293 276 269 287 280 275 281 270 267 295 295 296 328 46 357 332 332 19 60 337 339 20 177 186 164 208 222 255 136 110 73 136 123 119
309 316 322 328 331 331 330 330 332 333 335 337 336 335 337 335 333 332 338 340 343 309 303 304 10 345 234 190 207 243 297 312 322 339 223 246 319 116 49 275 347 313 165 121 94 248 226 203 148 129 79 125 124 128
297 308 313 316 320 322 324 327 328 328 329 331 332 332 331 330 327 327 343 356 0 325 297 294 298 246 221 226 245 257 279 312 316 322 305 179 219 201 221 223 147 229 348 283 302 43 180 217 206 174 156 149 132 131
295 299 304 309 314 317 321 323 324 325 327 328 329 329 330 331 326 334 100 64 30 9 297 293 317 318 359 260 236 259 281 301 312 311 34 261 240 33 331 59 272 313 221 120 233 259 192 193 169 151 147 145 143 145
300 304 306 303 307 313 320 323 324 328 329 328 327 328 327 331 330 356 179 90 350 318 315 316 321 327 4 196 286 312 292 287 275 269 241 263 305 327 102 192 262 204 99 25 299 19 207 151 154 153 143 144 146 144
301 301 302 309 308 313 319 324 328 331 331 329 325 327 328 328 324 263 125 356 337 319 267 304 300 355 20 353 337 326 295 266 271 279 244 258 305 348 136 179 269 319 88 71 91 137 131 151 146 144 138 137 137 133
306 307 307 312 313 312 316 323 328 332 331 329 323 331 350 42 61 36 14 333 328 323 257 280 279 339 18 8 337 2 354 321 253 266 245 228 297 349 263 318 343 307 215 177 87 222 194 164 149 148 149 148 140 135
311 308 309 312 315 317 320 322 327 333 334 330 322 311 298 39 14 338 316 309 306 244 319 313 280 295 3 348 359 1 5 1 330 34 311 72 257 227 261 354 25 346 284 244 123 163 162 171 159 150 149 143 135 135
323 315 312 314 319 318 320 325 329 336 339 337 307 7 215 251 296 309 336 278 251 208 236 246 272 295 329 338 329 339 8 354 351 274 319 71 281 226 19 34 15 18 25 109 123 118 154 145 144 141 142 144 148 154
321 321 319 316 313 315 318 322 330 339 348 6 351 257 278 294 270 259 257 198 192 242 224 253 293 289 324 313 241 294 221 347 11 284 44 336 311 318 350 0 357 13 5 45 109 139 156 150 146 148 152 152 155 152
316 319 320 319 317 317 317 318 327 340 346 331 311 303 326 292 247 259 247 279 172 229 266 260 311 313 300 278 108 277 169 45 257 203 49 313 307 357 346 357 3 315 15 89 128 145 149 155 154 152 139 127 111 127
310 317 319 321 322 319 315 312 323 331 337 325 326 312 271 258 23 201 211 281 278 226 236 291 317 293 307 297 305 55 38 249 8 45 183 21 338 358 356 349 121 123 130 129 128 138 149 139 148 159 153 182 193 201
304 312 317 321 318 315 308 307 319 330 332 291 254 308 175 241 243 210 172 188 213 222 266 282 263 247 300 331 291 125 246 55 331 21 4 278 8 29 38 50 104 129 121 133 136 147 164 173 168 177 197 166 163 181
294 306 310 309 322 326 318 312 313 317 278 267 262 241 232 245 292 278 157 176 226 270 284 292 312 242 289 321 283 1 341 8 47 357 260 307 324 347 63 91 104 129 130 134 133 133 131 134 139 148 160 167 177 175
285 294 283 294 301 316 307 308 310 267 260 251 245 272 284 292 333 237 170 208 237 264 297 251 86 44 280 186 317 339 60 105 238 210 268 288 285 298 350 187 152 133 161 155 150 142 149 160 156 171 174 179 181 187
273 275 273 285 303 310 305 295 235 243 243 243 243 256 270 283 277 297 243 211 214 244 226 173 9 254 283 65 85 127 204 217 275 282 273 267 284 317 307 259 201 182 179 164 148 144 148 166 201 195 166 160 157 159
258 267 268 277 306 311 275 239 245 245 250 248 251 262 271 276 297 314 341 222 204 215 224 216 174 119 240 321 283 255 269 301 264 257 277 276 283 281 283 283 254 226 197 181 183 202 186 166 173 79 209 205 253 218
256 256 243 257 313 322 260 249 224 262 252 263 267 276 283 284 293 269 285 203 211 244 252 232 127 188 232 217 228 277 315 294 270 256 275 302 329 326 296 278 272 251 216 222 214 211 185 157 140 127 120 176 210 216
246 251 236 240 260 258 269 254 232 259 268 280 288 283 293 277 285 292 288 289 255 243 171 184 216 227 212 237 262 285 194 300 217 197 203 147 159 103 78 99 88 99 118 147 141 135 155 161 168 164 168 189 238 268
238 240 224 207 215 225 258 264 246 252 285 269 280 305 295 279 276 271 269 245 262 206 215 233 256 268 202 223 261 177 192 179 223 272 303 253 216 222 188 150 126 82 53 119 141 156 173 97 171 183 211 225 276 290
199 184 171 183 214 229 260 239 244 299 286 268 290 282 241 266 270 276 264 234 233 240 247 258 252 222 211 209 201 170 147 148 208 301 246 250 235 179 183 173 174 182 173 134 181 207 210 220 215 216 258 257 259 269
169 177 188 203 223 231 261 241 236 244 254 266 289 252 240 234 224 227 223 223 239 250 256 253 224 212 193 195 189 182 183 169 248 247 217 226 137 142 174 208 237 214 193 205 218 224 220 224 207 234 251 238 265 280
167 178 211 217 210 257 263 239 217 251 268 246 276 306 276 222 215 177 230 208 247 211 178 178 180 178 184 191 190 193 208 227 227 211 287 239 246 231 248 246 229 229 235 236 232 243 251 250 242 239 247 264 284 287
179 209 210 229 213 234 243 243 203 235 254 236 243 255 262 263 92 238 228 194 175 179 179 196 190 197 187 198 206 228 239 238 223 220 240 256 275 266 236 223 238 242 225 232 228 234 246 188 207 236 251 266 280 282
218 206 201 198 211 206 218 243 204 214 230 233 248 276 153 94 223 251 229 197 194 205 213 210 206 207 221 225 220 219 231 233 236 247 206 220 250 243 229 251 251 248 229 240 237 218 216 225 273 272 262 268 254 269
232 221 212 218 245 261 266 266 266 252 264 262 246 236 110 232 253 327 319 46 323 243 220 210 215 215 223 244 245 227 219 211 209 177 177 250 249 270 277 257 239 215 229 216 221 218 221 225 241 273 265 252 264 284
247 246 210 214 218 237 239 264 250 237 225 242 264 242 200 97 286 10 290 254 100 340 220 213 211 216 231 255 206 210 207 217 228 233 256 255 248 286 280 190 194 228 272 245 209 217 211 211 226 238 119 134 206 255
239 232 247 251 229 219 220 212 231 248 260 347 331 288 237 223 289 276 244 247 301 311 254 216 206 210 216 229 218 227 231 231 229 220 226 246 283 264 239 221 257 248 356 196 189 213 251 255 219 226 233 262 247 282
236 224 247 223 210 223 212 222 257 260 270 280 286 284 287 285 291 302 286 277 294 303 256 273 216 229 234 228 221 232 243 246 241 239 231 230 267 264 233 245 254 208 211 198 177 186 190 182 188 203 212 224 248 301
228 206 226 244 256 254 256 259 267 271 273 276 283 277 280 283 287 296 295 274 281 285 285 285 223 256 251 262 247 266 251 267 246 228 238 258 217 209 205 202 218 218 220 233 242 248 252 250 242 241 246 259 269 293
220 234 254 278 263 259 262 269 271 270 272 273 275 278 281 283 286 285 265 262 264 269 269 272 273 285 269 233 253 262 250 241 263 258 265 211 197 206 207 198 225 217 229 231 234 245 261 268 268 281 260 294 284 297
211 218 236 267 265 251 256 237 240 257 257 252 257 258 258 258 255 266 281 267 258 257 256 254 257 259 272 292 283 265 251 245 245 249 221 213 217 212 200 198 202 212 216 223 200 216 275 247 231 252 272 268 251 186